Location: Malcolm X Square
(37.7810°N, 122.4297°W)
Time: 23:11:53
(UTC+00:00)

SL-16 R/B - Pass Details

Date: 13 April 2024
Orbit: 985 x 1006 km, 99.7° (Epoch: 21 May)

Event Time Altitude Azimuth Distance (km) Brightness Sun altitude
Exits shadow 12:36:06 13° 273° (W) 2,556 4.1 -12.2°
Drops below altitude 10° 12:38:25 10° 295° (WNW) 2,758 4.5 -11.8°
Sets 12:42:39 0° 323° (NW) 3,719 5.4 -11.0°
